Elizabeth Blieler — WDG2711 — position and weather

sailwx.info

Track history (hours):
 
Tides and Currents Weather Stations Pressure Air Temp Water Temp Dewpoint Dewpoint Depression Visibility Wind Speed Wind Dir Waves Ship Positions

Elizabeth Blieler

Owner: Kelly O Towing LLC, Hull, TX. More information available from US FCC via Universal Licensing System and Coast Guard Vessel Documentation Center.

Last reported at 2017-Dec-11 09:13 UTC. Time now 2017-Dec-14 00:25 UTC.
Position N 29°58' W 093°52'.

MMSI: 367518460.

Date/timePositionNaut miles runAvg speedWind from/ knotsBaromVisibWave heightAir tempDewpointWater temp
2017-Dec-11 09:13N 29°58' W 093°52'0 0.0
2017-Dec-11 08:58N 29°58' W 093°52'0 0.0
2017-Dec-11 08:30N 29°58' W 093°52'0 0.0
2017-Dec-11 07:59N 29°58' W 093°52'0 0.0
2017-Dec-11 07:28N 29°58' W 093°52'0 0.0
2017-Dec-11 07:00N 29°58' W 093°52'0 0.0
2017-Dec-11 06:28N 29°58' W 093°52'0 0.0
2017-Dec-11 05:57N 29°58' W 093°52'0 0.0
2017-Dec-11 05:28N 29°58' W 093°52'0 0.0
2017-Dec-11 05:00N 29°58' W 093°52'3 0.3
2017-Dec-10 16:14N 29°55' W 093°53'2 7.9
2017-Dec-10 16:00N 29°56' W 093°52'2 3.1
2017-Dec-10 15:30N 29°58' W 093°52'0 0.0
2017-Dec-10 15:01N 29°58' W 093°52'0 0.0
2017-Dec-10 14:30N 29°58' W 093°52'0 0.0
2017-Dec-10 13:46N 29°58' W 093°52'0 0.0
2017-Dec-10 13:30N 29°58' W 093°52'0 0.0
2017-Dec-10 12:58N 29°58' W 093°52'0 0.0
2017-Dec-10 12:23N 29°58' W 093°52'9 0.7
2017-Dec-09 23:59N 30°03' W 093°44'2 4.2
2017-Dec-09 23:26N 30°04' W 093°41'2 4.6
2017-Dec-09 23:00N 30°04' W 093°39'2 4.7
2017-Dec-09 22:30N 30°04' W 093°36'2 3.9
2017-Dec-09 22:00N 30°04' W 093°34'2 3.8
2017-Dec-09 21:31N 30°04' W 093°32'2 3.8
2017-Dec-09 21:01N 30°04' W 093°30'2 3.8
2017-Dec-09 20:31N 30°04' W 093°27'2 3.7
2017-Dec-09 20:01N 30°04' W 093°25'2 3.7
2017-Dec-09 19:31N 30°04' W 093°23'2 3.3
2017-Dec-09 19:01N 30°04' W 093°21'2 3.7
2017-Dec-09 18:31N 30°05' W 093°20'2 3.5
2017-Dec-09 18:01N 30°06' W 093°18'1 2.2
2017-Dec-09 17:30N 30°05' W 093°17'2 4.2
2017-Dec-09 17:01N 30°04' W 093°16'1 2.5
2017-Dec-09 16:31N 30°02' W 093°15'2 3.7
2017-Dec-09 16:01N 30°01' W 093°14'2 3.8
2017-Dec-09 15:30N 29°59' W 093°13'2 4.3
2017-Dec-09 15:01N 29°58' W 093°11'2 4.3
2017-Dec-09 14:31N 29°56' W 093°10'2 4.1
2017-Dec-09 14:00N 29°56' W 093°07'2 4.1
2017-Dec-09 13:30N 29°56' W 093°05'31 3.6
2017-Dec-09 04:59N 29°54' W 092°29'2 3.6
2017-Dec-09 04:26N 29°54' W 092°27'2 3.7
2017-Dec-09 03:57N 29°53' W 092°25'1 3.3
2017-Dec-09 03:31N 29°53' W 092°23'2 3.5
2017-Dec-09 02:49N 29°51' W 092°22'1 3.6
2017-Dec-09 02:31N 29°51' W 092°21'1 2.1
2017-Dec-09 02:01N 29°50' W 092°19'1 2.5
2017-Dec-09 01:31N 29°50' W 092°18'2 3.0
2017-Dec-09 01:01N 29°49' W 092°17'2 3.1
2017-Dec-09 00:31N 29°48' W 092°15'2 3.4
2017-Dec-09 00:01N 29°48' W 092°14'1 2.4
2017-Dec-08 23:31N 29°47' W 092°12'0 0.3
2017-Dec-08 23:00N 29°47' W 092°12'1 1.4
2017-Dec-08 22:31N 29°47' W 092°11'1 2.2
2017-Dec-08 22:01N 29°47' W 092°10'2 3.0
2017-Dec-08 21:31N 29°47' W 092°08'2 3.6
2017-Dec-08 21:01N 29°48' W 092°06'2 3.4
2017-Dec-08 20:31N 29°48' W 092°05'2 3.3
2017-Dec-08 20:01N 29°49' W 092°03'2 3.4
2017-Dec-08 19:30N 29°49' W 092°01'58 3.3
2017-Dec-08 02:16N 29°34' W 090°57'1 4.6
2017-Dec-08 02:00N 29°34' W 090°56'3 4.5
2017-Dec-08 01:25N 29°32' W 090°53'2 4.2
2017-Dec-08 01:00N 29°32' W 090°51'2 4.3
2017-Dec-08 00:31N 29°32' W 090°49'2 4.1
2017-Dec-08 00:00N 29°32' W 090°46'2 3.7
2017-Dec-07 23:30N 29°34' W 090°45'2 3.4
2017-Dec-07 23:00N 29°34' W 090°43'2 3.6
2017-Dec-07 22:31N 29°36' W 090°43'1 2.3
2017-Dec-07 22:00N 29°37' W 090°42'1 1.1
2017-Dec-07 21:30N 29°36' W 090°41'1 1.1
2017-Dec-07 21:00N 29°36' W 090°41'0 0.9
2017-Dec-07 20:30N 29°36' W 090°40'1 2.0
2017-Dec-07 20:01N 29°36' W 090°39'1 2.3
2017-Dec-07 19:30N 29°35' W 090°38'2 3.8
2017-Dec-07 19:00N 29°35' W 090°36'1 2.8
2017-Dec-07 18:29N 29°34' W 090°34'1 2.6
2017-Dec-07 17:59N 29°34' W 090°33'  
2017-Dec-04 10:30N 29°49' W 092°02'3 5.6
2017-Dec-04 10:00N 29°48' W 092°05'3 5.7
2017-Dec-04 09:30N 29°47' W 092°08'2 4.7
2017-Dec-04 09:00N 29°47' W 092°11'1 3.0
2017-Dec-04 08:30N 29°47' W 092°13'1 2.5
2017-Dec-04 08:00N 29°48' W 092°14'0 0.8
2017-Dec-04 07:30N 29°48' W 092°14'0 0.8
2017-Dec-04 07:00N 29°48' W 092°15'1 2.6
2017-Dec-04 06:30N 29°49' W 092°16'2 4.1
2017-Dec-04 06:00N 29°50' W 092°18'10 4.7
2017-Dec-04 03:48N 29°54' W 092°29'2 5.0
2017-Dec-04 03:26N 29°54' W 092°31'2 5.1
2017-Dec-04 02:57N 29°55' W 092°34'2 5.1
2017-Dec-04 02:30N 29°55' W 092°36'3 5.4
2017-Dec-04 02:00N 29°56' W 092°39'9 3.3
2017-Dec-03 23:15N 29°58' W 092°50'8 5.3
2017-Dec-03 21:49N 29°56' W 092°58'1 2.8
2017-Dec-03 21:24N 29°56' W 092°59'0 0.8
2017-Dec-03 20:53N 29°56' W 092°60'1 2.4
2017-Dec-03 20:26N 29°56' W 093°01'2 5.3
2017-Dec-03 20:00N 29°56' W 093°04'2 4.7
2017-Dec-03 19:30N 29°56' W 093°06'2 5.0
2017-Dec-03 19:00N 29°56' W 093°09'2 4.8
2017-Dec-03 18:30N 29°58' W 093°11'3 5.1
2017-Dec-03 18:00N 29°60' W 093°13'2 4.4
2017-Dec-03 17:30N 30°02' W 093°14'0 0.3
2017-Dec-03 17:00N 30°02' W 093°14'1 3.0
2017-Dec-03 16:30N 30°03' W 093°16'2 4.1
2017-Dec-03 16:00N 30°05' W 093°17'2 3.0
2017-Dec-03 15:30N 30°06' W 093°18'1 1.4
2017-Dec-03 15:00N 30°06' W 093°18'0 0.0
2017-Dec-03 14:26N 30°06' W 093°18'0 0.0
2017-Dec-03 13:57N 30°06' W 093°18'0 0.0
2017-Dec-03 13:16N 30°06' W 093°18'0 0.1
2017-Dec-03 12:57N 30°06' W 093°18'0 0.0
2017-Dec-03 12:28N 30°06' W 093°18'0 0.0
2017-Dec-03 12:00N 30°06' W 093°18'0 0.0
2017-Dec-03 11:30N 30°06' W 093°18'0 0.0
2017-Dec-03 10:53N 30°06' W 093°18'0 0.0
2017-Dec-03 10:30N 30°06' W 093°18'0 0.0
2017-Dec-03 10:00N 30°06' W 093°18'0 0.0
2017-Dec-03 09:29N 30°06' W 093°18'0 0.0
2017-Dec-03 08:56N 30°06' W 093°18'0 0.0
2017-Dec-03 08:30N 30°06' W 093°18'0 0.0
2017-Dec-03 08:00N 30°06' W 093°18'0 0.0
2017-Dec-03 07:30N 30°06' W 093°18'0 0.0
2017-Dec-03 06:50N 30°06' W 093°18'0 0.0
2017-Dec-03 06:30N 30°06' W 093°18'0 0.0
2017-Dec-03 05:55N 30°06' W 093°18'0 0.0
2017-Dec-03 05:30N 30°06' W 093°18'0 0.0
2017-Dec-03 04:55N 30°06' W 093°18'0 0.0
2017-Dec-03 04:30N 30°06' W 093°18'0 0.0
2017-Dec-03 03:54N 30°06' W 093°18'0 0.0
2017-Dec-03 03:30N 30°06' W 093°18'0 0.0
2017-Dec-03 02:55N 30°06' W 093°18'0 0.0
2017-Dec-03 02:26N 30°06' W 093°18'0 0.0
2017-Dec-03 02:00N 30°06' W 093°18'0 0.0
2017-Dec-03 01:30N 30°06' W 093°18'1 2.8
2017-Dec-03 01:00N 30°05' W 093°20'2 4.2
2017-Dec-03 00:30N 30°04' W 093°21'1 2.8
2017-Dec-03 00:00N 30°04' W 093°23'2 3.2
2017-Dec-02 23:30N 30°04' W 093°25'2 4.2
2017-Dec-02 23:00N 30°04' W 093°27'2 4.2
2017-Dec-02 22:30N 30°04' W 093°29'20 1.7
2017-Dec-02 10:31N 29°58' W 093°52'9 0.7
2017-Dec-01 21:23N 30°03' W 093°43'3 5.6
2017-Dec-01 20:50N 30°04' W 093°40'2 5.1
2017-Dec-01 20:30N 30°04' W 093°38'2 5.0
2017-Dec-01 20:00N 30°04' W 093°35'2 5.0
2017-Dec-01 19:30N 30°04' W 093°32'3 5.1
2017-Dec-01 19:00N 30°04' W 093°29'3 5.1
2017-Dec-01 18:30N 30°04' W 093°26'2 5.0
2017-Dec-01 18:00N 30°04' W 093°23'2 4.0
2017-Dec-01 17:30N 30°04' W 093°21'1 2.7
2017-Dec-01 17:00N 30°05' W 093°20'3 6.3
2017-Dec-01 16:30N 30°02' W 093°20'3 6.2
2017-Dec-01 16:00N 29°58' W 093°20'11 4.8
2017-Dec-01 13:37N 29°47' W 093°20'0 0.2
2017-Dec-01 13:27N 29°47' W 093°20'1 0.3
2017-Dec-01 11:15N 29°47' W 093°21'2 6.8
2017-Dec-01 10:59N 29°49' W 093°21'3 7.0
2017-Dec-01 10:31N 29°52' W 093°21'3 5.0
2017-Dec-01 10:00N 29°54' W 093°21'2 4.8
2017-Dec-01 09:31N 29°57' W 093°20'  
Track history (hours):
 
Tides and Currents Weather Stations Pressure Air Temp Water Temp Dewpoint Dewpoint Depression Visibility Wind Speed Wind Dir Waves Ship Positions

Elizabeth Blieler

Owner: Kelly O Towing LLC, Hull, TX. More information available from US FCC via Universal Licensing System and Coast Guard Vessel Documentation Center.

Last reported at 2017-Dec-11 09:13 UTC. Time now 2017-Dec-14 00:25 UTC.
Position N 29°58' W 093°52'.

MMSI: 367518460.

Date/timePositionNaut miles runAvg speedWind from/ knotsBaromVisibWave heightAir tempDewpointWater temp
2017-Dec-11 09:13N 29°58' W 093°52'0 0.0
2017-Dec-11 08:58N 29°58' W 093°52'0 0.0
2017-Dec-11 08:30N 29°58' W 093°52'0 0.0
2017-Dec-11 07:59N 29°58' W 093°52'0 0.0
2017-Dec-11 07:28N 29°58' W 093°52'0 0.0
2017-Dec-11 07:00N 29°58' W 093°52'0 0.0
2017-Dec-11 06:28N 29°58' W 093°52'0 0.0
2017-Dec-11 05:57N 29°58' W 093°52'0 0.0
2017-Dec-11 05:28N 29°58' W 093°52'0 0.0
2017-Dec-11 05:00N 29°58' W 093°52'3 0.3
2017-Dec-10 16:14N 29°55' W 093°53'2 7.9
2017-Dec-10 16:00N 29°56' W 093°52'2 3.1
2017-Dec-10 15:30N 29°58' W 093°52'0 0.0
2017-Dec-10 15:01N 29°58' W 093°52'0 0.0
2017-Dec-10 14:30N 29°58' W 093°52'0 0.0
2017-Dec-10 13:46N 29°58' W 093°52'0 0.0
2017-Dec-10 13:30N 29°58' W 093°52'0 0.0
2017-Dec-10 12:58N 29°58' W 093°52'0 0.0
2017-Dec-10 12:23N 29°58' W 093°52'9 0.7
2017-Dec-09 23:59N 30°03' W 093°44'2 4.2
2017-Dec-09 23:26N 30°04' W 093°41'2 4.6
2017-Dec-09 23:00N 30°04' W 093°39'2 4.7
2017-Dec-09 22:30N 30°04' W 093°36'2 3.9
2017-Dec-09 22:00N 30°04' W 093°34'2 3.8
2017-Dec-09 21:31N 30°04' W 093°32'2 3.8
2017-Dec-09 21:01N 30°04' W 093°30'2 3.8
2017-Dec-09 20:31N 30°04' W 093°27'2 3.7
2017-Dec-09 20:01N 30°04' W 093°25'2 3.7
2017-Dec-09 19:31N 30°04' W 093°23'2 3.3
2017-Dec-09 19:01N 30°04' W 093°21'2 3.7
2017-Dec-09 18:31N 30°05' W 093°20'2 3.5
2017-Dec-09 18:01N 30°06' W 093°18'1 2.2
2017-Dec-09 17:30N 30°05' W 093°17'2 4.2
2017-Dec-09 17:01N 30°04' W 093°16'1 2.5
2017-Dec-09 16:31N 30°02' W 093°15'2 3.7
2017-Dec-09 16:01N 30°01' W 093°14'2 3.8
2017-Dec-09 15:30N 29°59' W 093°13'2 4.3
2017-Dec-09 15:01N 29°58' W 093°11'2 4.3
2017-Dec-09 14:31N 29°56' W 093°10'2 4.1
2017-Dec-09 14:00N 29°56' W 093°07'2 4.1
2017-Dec-09 13:30N 29°56' W 093°05'31 3.6
2017-Dec-09 04:59N 29°54' W 092°29'2 3.6
2017-Dec-09 04:26N 29°54' W 092°27'2 3.7
2017-Dec-09 03:57N 29°53' W 092°25'1 3.3
2017-Dec-09 03:31N 29°53' W 092°23'2 3.5
2017-Dec-09 02:49N 29°51' W 092°22'1 3.6
2017-Dec-09 02:31N 29°51' W 092°21'1 2.1
2017-Dec-09 02:01N 29°50' W 092°19'1 2.5
2017-Dec-09 01:31N 29°50' W 092°18'2 3.0
2017-Dec-09 01:01N 29°49' W 092°17'2 3.1
2017-Dec-09 00:31N 29°48' W 092°15'2 3.4
2017-Dec-09 00:01N 29°48' W 092°14'1 2.4
2017-Dec-08 23:31N 29°47' W 092°12'0 0.3
2017-Dec-08 23:00N 29°47' W 092°12'1 1.4
2017-Dec-08 22:31N 29°47' W 092°11'1 2.2
2017-Dec-08 22:01N 29°47' W 092°10'2 3.0
2017-Dec-08 21:31N 29°47' W 092°08'2 3.6
2017-Dec-08 21:01N 29°48' W 092°06'2 3.4
2017-Dec-08 20:31N 29°48' W 092°05'2 3.3
2017-Dec-08 20:01N 29°49' W 092°03'2 3.4
2017-Dec-08 19:30N 29°49' W 092°01'58 3.3
2017-Dec-08 02:16N 29°34' W 090°57'1 4.6
2017-Dec-08 02:00N 29°34' W 090°56'3 4.5
2017-Dec-08 01:25N 29°32' W 090°53'2 4.2
2017-Dec-08 01:00N 29°32' W 090°51'2 4.3
2017-Dec-08 00:31N 29°32' W 090°49'2 4.1
2017-Dec-08 00:00N 29°32' W 090°46'2 3.7
2017-Dec-07 23:30N 29°34' W 090°45'2 3.4
2017-Dec-07 23:00N 29°34' W 090°43'2 3.6
2017-Dec-07 22:31N 29°36' W 090°43'1 2.3
2017-Dec-07 22:00N 29°37' W 090°42'1 1.1
2017-Dec-07 21:30N 29°36' W 090°41'1 1.1
2017-Dec-07 21:00N 29°36' W 090°41'0 0.9
2017-Dec-07 20:30N 29°36' W 090°40'1 2.0
2017-Dec-07 20:01N 29°36' W 090°39'1 2.3
2017-Dec-07 19:30N 29°35' W 090°38'2 3.8
2017-Dec-07 19:00N 29°35' W 090°36'1 2.8
2017-Dec-07 18:29N 29°34' W 090°34'1 2.6
2017-Dec-07 17:59N 29°34' W 090°33'  
2017-Dec-04 10:30N 29°49' W 092°02'3 5.6
2017-Dec-04 10:00N 29°48' W 092°05'3 5.7
2017-Dec-04 09:30N 29°47' W 092°08'2 4.7
2017-Dec-04 09:00N 29°47' W 092°11'1 3.0
2017-Dec-04 08:30N 29°47' W 092°13'1 2.5
2017-Dec-04 08:00N 29°48' W 092°14'0 0.8
2017-Dec-04 07:30N 29°48' W 092°14'0 0.8
2017-Dec-04 07:00N 29°48' W 092°15'1 2.6
2017-Dec-04 06:30N 29°49' W 092°16'2 4.1
2017-Dec-04 06:00N 29°50' W 092°18'10 4.7
2017-Dec-04 03:48N 29°54' W 092°29'2 5.0
2017-Dec-04 03:26N 29°54' W 092°31'2 5.1
2017-Dec-04 02:57N 29°55' W 092°34'2 5.1
2017-Dec-04 02:30N 29°55' W 092°36'3 5.4
2017-Dec-04 02:00N 29°56' W 092°39'9 3.3
2017-Dec-03 23:15N 29°58' W 092°50'8 5.3
2017-Dec-03 21:49N 29°56' W 092°58'1 2.8
2017-Dec-03 21:24N 29°56' W 092°59'0 0.8
2017-Dec-03 20:53N 29°56' W 092°60'1 2.4
2017-Dec-03 20:26N 29°56' W 093°01'2 5.3
2017-Dec-03 20:00N 29°56' W 093°04'2 4.7
2017-Dec-03 19:30N 29°56' W 093°06'2 5.0
2017-Dec-03 19:00N 29°56' W 093°09'2 4.8
2017-Dec-03 18:30N 29°58' W 093°11'3 5.1
2017-Dec-03 18:00N 29°60' W 093°13'2 4.4
2017-Dec-03 17:30N 30°02' W 093°14'0 0.3
2017-Dec-03 17:00N 30°02' W 093°14'1 3.0
2017-Dec-03 16:30N 30°03' W 093°16'2 4.1
2017-Dec-03 16:00N 30°05' W 093°17'2 3.0
2017-Dec-03 15:30N 30°06' W 093°18'1 1.4
2017-Dec-03 15:00N 30°06' W 093°18'0 0.0
2017-Dec-03 14:26N 30°06' W 093°18'0 0.0
2017-Dec-03 13:57N 30°06' W 093°18'0 0.0
2017-Dec-03 13:16N 30°06' W 093°18'0 0.1
2017-Dec-03 12:57N 30°06' W 093°18'0 0.0
2017-Dec-03 12:28N 30°06' W 093°18'0 0.0
2017-Dec-03 12:00N 30°06' W 093°18'0 0.0
2017-Dec-03 11:30N 30°06' W 093°18'0 0.0
2017-Dec-03 10:53N 30°06' W 093°18'0 0.0
2017-Dec-03 10:30N 30°06' W 093°18'0 0.0
2017-Dec-03 10:00N 30°06' W 093°18'0 0.0
2017-Dec-03 09:29N 30°06' W 093°18'0 0.0
2017-Dec-03 08:56N 30°06' W 093°18'0 0.0
2017-Dec-03 08:30N 30°06' W 093°18'0 0.0
2017-Dec-03 08:00N 30°06' W 093°18'0 0.0
2017-Dec-03 07:30N 30°06' W 093°18'0 0.0
2017-Dec-03 06:50N 30°06' W 093°18'0 0.0
2017-Dec-03 06:30N 30°06' W 093°18'0 0.0
2017-Dec-03 05:55N 30°06' W 093°18'0 0.0
2017-Dec-03 05:30N 30°06' W 093°18'0 0.0
2017-Dec-03 04:55N 30°06' W 093°18'0 0.0
2017-Dec-03 04:30N 30°06' W 093°18'0 0.0
2017-Dec-03 03:54N 30°06' W 093°18'0 0.0
2017-Dec-03 03:30N 30°06' W 093°18'0 0.0
2017-Dec-03 02:55N 30°06' W 093°18'0 0.0
2017-Dec-03 02:26N 30°06' W 093°18'0 0.0
2017-Dec-03 02:00N 30°06' W 093°18'0 0.0
2017-Dec-03 01:30N 30°06' W 093°18'1 2.8
2017-Dec-03 01:00N 30°05' W 093°20'2 4.2
2017-Dec-03 00:30N 30°04' W 093°21'1 2.8
2017-Dec-03 00:00N 30°04' W 093°23'2 3.2
2017-Dec-02 23:30N 30°04' W 093°25'2 4.2
2017-Dec-02 23:00N 30°04' W 093°27'2 4.2
2017-Dec-02 22:30N 30°04' W 093°29'20 1.7
2017-Dec-02 10:31N 29°58' W 093°52'9 0.7
2017-Dec-01 21:23N 30°03' W 093°43'3 5.6
2017-Dec-01 20:50N 30°04' W 093°40'2 5.1
2017-Dec-01 20:30N 30°04' W 093°38'2 5.0
2017-Dec-01 20:00N 30°04' W 093°35'2 5.0
2017-Dec-01 19:30N 30°04' W 093°32'3 5.1
2017-Dec-01 19:00N 30°04' W 093°29'3 5.1
2017-Dec-01 18:30N 30°04' W 093°26'2 5.0
2017-Dec-01 18:00N 30°04' W 093°23'2 4.0
2017-Dec-01 17:30N 30°04' W 093°21'1 2.7
2017-Dec-01 17:00N 30°05' W 093°20'3 6.3
2017-Dec-01 16:30N 30°02' W 093°20'3 6.2
2017-Dec-01 16:00N 29°58' W 093°20'11 4.8
2017-Dec-01 13:37N 29°47' W 093°20'0 0.2
2017-Dec-01 13:27N 29°47' W 093°20'1 0.3
2017-Dec-01 11:15N 29°47' W 093°21'2 6.8
2017-Dec-01 10:59N 29°49' W 093°21'3 7.0
2017-Dec-01 10:31N 29°52' W 093°21'3 5.0
2017-Dec-01 10:00N 29°54' W 093°21'2 4.8
2017-Dec-01 09:31N 29°57' W 093°20'  

Dump ship's entire track history